Weather History for Tri-Cities, TN

Change the Weather History Date:

Tuesday, January 15, 2013

  Actual Average Record
Temperature  
Mean Temperature 45 °F 35 °F  
Max Temperature 50 °F 45 °F 72 °F (1950)
Min Temperature 39 °F 25 °F -4 °F (1964)
Degree Days  
Heating Degree Days 20 30  
Month to date heating degree days 328 450  
Since 1 July heating degree days 1995 2179  
Cooling Degree Days 0 0  
Month to date cooling degree days 0 0  
Year to date cooling degree days 0 0  
Moisture  
Dew Point 43 °F    
Average Humidity 95    
Maximum Humidity 100    
Minimum Humidity 89    
Precipitation  
Precipitation 2.38 in 0.11 in 2.38 in (2013)
Month to date precipitation 5.16 1.59  
Year to date precipitation 5.16 1.59  
Snow  
Snow 0.00 in 0.20 in - ()
Month to date snowfall T 2.2  
Since 1 July snowfall 0.6 4.9  
Snow Depth 0.00 in    
Sea Level Pressure  
Sea Level Pressure 30.07 in    
Wind  
Wind Speed 3 mph (NNE)    
Max Wind Speed 10 mph    
Max Gust Speed 13 mph    
Visibility 3 miles    
Events Rain    
T = Trace of Precipitation, MM = Missing Value Source: NWS Daily Summary

Daily Weather History Graph

Daily Weather History Graph

Search for Another Location

Airport:

Trip Planner

Search our weather history database for the weather conditions in past years. The results will help you decide how hot, cold, wet, or windy it might be!

Date:

Astronomy

Jan. 15, 2013 Rise Set
Actual Time 7:40 AM EST 5:38 PM EST
Civil Twilight 7:12 AM EST 6:06 PM EST
Nautical Twilight 6:40 AM EST 6:37 PM EST
Astronomical Twilight 6:09 AM EST 7:08 PM EST
Moon 9:54 AM EST (1/15) 10:16 PM EST (1/15)
Length of Visible Light 10h 53m
Length of Day
9h 57m
Waxing Crescent, 19% of the Moon is Illuminated
Jan 15
Waxing Crescent
Jan 18
First Quarter
Jan 26
Full
Feb 3
Last Quarter
Feb 10
New

Hourly Weather History & Observations

Time (EST) Temp. Windchill Dew Point Humidity Pressure Visibility Wind Dir Wind Speed Gust Speed Precip Events Conditions
12:53 AM 39.9 °F 35.1 °F 37.9 °F 93% 30.14 in 10.0 mi NE 6.9 mph - 0.04 in   Overcast
1:53 AM 39.9 °F 35.8 °F 39.0 °F 97% 30.11 in 10.0 mi East 5.8 mph - 0.01 in Rain Light Rain
2:53 AM 41.0 °F 38.0 °F 39.9 °F 96% 30.08 in 10.0 mi NNE 4.6 mph - 0.01 in Rain Light Rain
3:53 AM 42.1 °F 40.2 °F 41.0 °F 96% 30.07 in 8.0 mi East 3.5 mph - 0.04 in Rain Light Rain
4:12 AM 43.0 °F - 41.0 °F 93% 30.10 in 4.0 mi Calm Calm - 0.03 in Rain Rain
4:53 AM 43.0 °F 41.3 °F 41.0 °F 93% 30.07 in 6.0 mi WNW 3.5 mph - 0.15 in Rain Light Rain
5:01 AM 43.0 °F - 41.0 °F 93% 30.09 in 2.5 mi Calm Calm - 0.03 in Rain Heavy Rain
5:30 AM 43.0 °F - 42.1 °F 97% 30.10 in 4.0 mi Calm Calm - 0.19 in Rain Rain
5:43 AM 43.0 °F - 41.0 °F 93% 30.10 in 1.8 mi Calm Calm - 0.24 in Rain Heavy Rain
5:53 AM 43.0 °F - 42.1 °F 97% 30.08 in 3.0 mi Calm Calm - 0.29 in Rain Rain
6:28 AM 43.0 °F 38.8 °F 42.1 °F 97% 30.13 in 2.5 mi West 6.9 mph - 0.08 in Rain Rain
6:46 AM 43.0 °F - 42.1 °F 97% 30.12 in 2.5 mi Calm Calm - 0.13 in Rain Rain
6:53 AM 43.0 °F - 42.1 °F 97% 30.11 in 2.5 mi Calm Calm - 0.15 in Rain Rain
7:37 AM 44.1 °F 39.5 °F 42.1 °F 93% 30.14 in 2.5 mi NNE 8.1 mph - 0.14 in Rain Rain
7:48 AM 42.8 °F 38.6 °F 41.0 °F 93% 30.16 in 2.5 mi NNW 6.9 mph - 0.17 in Rain Rain
7:53 AM 43.0 °F 40.3 °F 41.0 °F 93% 30.13 in 2.0 mi NNE 4.6 mph - 0.19 in Rain Heavy Rain
8:12 AM 43.0 °F 38.2 °F 41.0 °F 93% 30.17 in 2.0 mi North 8.1 mph - 0.07 in Rain Rain
8:34 AM 43.0 °F 40.3 °F 41.0 °F 93% 30.18 in 2.0 mi NW 4.6 mph - 0.12 in Rain Rain
8:53 AM 43.0 °F 40.3 °F 41.0 °F 93% 30.17 in 2.0 mi North 4.6 mph - 0.18 in Rain Rain
9:53 AM 42.1 °F 39.2 °F 39.9 °F 92% 30.15 in 2.0 mi North 4.6 mph - 0.06 in Rain Rain
10:42 AM 42.1 °F 40.2 °F 39.9 °F 92% 30.17 in 2.0 mi North 3.5 mph - 0.04 in Rain Light Rain
10:50 AM 42.8 °F 40.1 °F 39.2 °F 87% 30.17 in 3.0 mi North 4.6 mph - 0.04 in Rain Light Rain
10:53 AM 42.1 °F 40.2 °F 39.9 °F 92% 30.16 in 3.0 mi North 3.5 mph - 0.04 in Rain Light Rain
11:01 AM 42.1 °F 39.2 °F 39.9 °F 92% 30.17 in 2.0 mi North 4.6 mph - 0.01 in Rain Light Rain
11:53 AM 42.1 °F 39.2 °F 39.9 °F 92% 30.12 in 2.0 mi North 4.6 mph - 0.06 in Rain Light Rain
12:42 PM 42.1 °F 40.2 °F 41.0 °F 96% 30.09 in 2.0 mi North 3.5 mph - 0.04 in Rain Rain
12:53 PM 43.0 °F - 41.0 °F 93% 30.08 in 2.0 mi Calm Calm - 0.05 in Rain Light Rain
1:53 PM 44.1 °F 41.5 °F 43.0 °F 96% 30.03 in 2.0 mi ENE 4.6 mph - 0.05 in Rain Light Rain
2:31 PM 44.1 °F 42.5 °F 43.0 °F 96% 30.03 in 2.0 mi East 3.5 mph - 0.02 in Rain Rain
2:53 PM 45.0 °F - 43.0 °F 93% 30.02 in 2.0 mi Calm Calm - 0.07 in Rain Rain
3:02 PM 45.0 °F 42.6 °F 43.0 °F 93% 30.02 in 2.0 mi NE 4.6 mph - 0.02 in Rain Rain
3:53 PM 45.0 °F - 44.1 °F 97% 30.00 in 2.0 mi Calm Calm - 0.16 in Rain Rain
4:53 PM 46.0 °F - 45.0 °F 96% 29.99 in 3.0 mi Calm Calm - 0.13 in Rain Light Rain
5:03 PM 46.0 °F - 45.0 °F 96% 30.01 in 2.0 mi Calm Calm - 0.03 in Rain Rain
5:53 PM 46.9 °F - 46.0 °F 97% 30.01 in 2.0 mi Calm Calm - 0.24 in Rain Heavy Rain
6:38 PM 46.9 °F - 46.0 °F 97% 30.02 in 2.0 mi ENE 3.5 mph - 0.15 in Rain Rain
6:53 PM 46.9 °F - 46.0 °F 97% 30.00 in 2.0 mi East 4.6 mph - 0.17 in Rain Rain
7:53 PM 48.0 °F - 46.9 °F 96% 29.96 in 2.0 mi ENE 3.5 mph - 0.06 in Rain Light Rain
8:12 PM 48.0 °F - 46.9 °F 96% 29.97 in 2.0 mi ENE 3.5 mph - 0.03 in Rain Rain
8:23 PM 48.0 °F - 46.9 °F 96% 29.97 in 2.0 mi ENE 3.5 mph - 0.04 in Rain Light Rain
8:53 PM 48.0 °F - 46.9 °F 96% 29.93 in 2.0 mi ENE 5.8 mph - 0.05 in Rain Light Rain
9:53 PM 48.9 °F - 48.0 °F 97% 29.93 in 2.0 mi NNW 3.5 mph - 0.03 in Rain Light Rain
10:25 PM 50.0 °F - 48.9 °F 96% 29.97 in 2.0 mi WNW 3.5 mph - 0.02 in Rain Light Rain
10:44 PM 50.0 °F - 48.9 °F 96% 29.97 in 2.0 mi Calm Calm - 0.04 in Rain Rain
10:53 PM 48.9 °F - 48.0 °F 97% 29.94 in 2.0 mi West 4.6 mph - 0.07 in Rain Rain
11:48 PM 48.2 °F - 46.4 °F 93% 29.98 in 3.0 mi Calm Calm - 0.07 in Rain Rain
11:53 PM 48.0 °F - 46.9 °F 96% 29.96 in 3.0 mi Calm Calm - 0.08 in Rain Light Rain